When you browse on this site, cookies collect data to enhance your experience and personalize the content and advertising you see.
Visit our Privacy Policy to learn more. By continuing to use the site, you agree to this use of cookies and data.
  • In Hungary
  • List of Countries
  • For 7 days
  • Water Temperature
  • Satellite Maps
  • Weather Map
  • News
  • Weather Widgets
  • user-avatar
    Login

    Hourly Weather Pytlowka

    Today, 19 November, Monday

    Time Temperature Precipitation Wind Pressure Humidity
    00:00 -4°C° 0 mm 2 mps 711 mmHg 71%
    01:00 -4°C° 0 mm 2 mps 711 mmHg 72%
    02:00 -4°C° 0 mm 2 mps 711 mmHg 73%
    03:00 -5°C° 0 mm 2 mps 710 mmHg 75%
    04:00 -5°C° 0 mm 2 mps 710 mmHg 76%
    05:00 -5°C° 0 mm 2 mps 710 mmHg 78%
    06:00 -5°C° 0 mm 2 mps 710 mmHg 79%
    07:00 -6°C° 0 mm 3 mps 710 mmHg 81%
    08:00 -5°C° 0 mm 3 mps 710 mmHg 76%
    09:00 -5°C° 0 mm 3 mps 710 mmHg 71%
    10:00 -4°C° 0 mm 4 mps 711 mmHg 66%
    11:00 -3°C° 0 mm 4 mps 711 mmHg 65%
    12:00 -3°C° 0 mm 4 mps 711 mmHg 63%
    13:00 -2°C° 0 mm 4 mps 711 mmHg 62%
    14:00 -3°C° 0 mm 4 mps 711 mmHg 65%
    15:00 -2°C° 0 mm 3 mps 711 mmHg 69%
    16:00 -2°C° 0 mm 3 mps 711 mmHg 72%
    17:00 -4°C° 0 mm 3 mps 711 mmHg 76%
    18:00 -4°C° 0 mm 3 mps 711 mmHg 79%
    19:00 -4°C° 0 mm 3 mps 711 mmHg 83%
    20:00 -4°C° 0 mm 3 mps 711 mmHg 84%
    21:00 -4°C° 0 mm 3 mps 712 mmHg 85%
    22:00 -4°C° 0 mm 3 mps 712 mmHg 86%
    23:00 -4°C° 0 mm 3 mps 712 mmHg 86%

    Tomorrow, 20 November, Tuesday

    Time Temperature Precipitation Wind Pressure Humidity
    00:00 -4°C° 0 mm 3 mps 712 mmHg 87%
    01:00 -4°C° 0 mm 3 mps 711 mmHg 88%
    02:00 -5°C° 0 mm 3 mps 711 mmHg 88%
    03:00 -5°C° 0 mm 3 mps 711 mmHg 89%
    04:00 -5°C° 0 mm 3 mps 711 mmHg 90%
    05:00 -5°C° 0 mm 4 mps 711 mmHg 89%
    06:00 -4°C° 0 mm 4 mps 711 mmHg 89%
    07:00 -4°C° 0 mm 4 mps 711 mmHg 88%
    08:00 -4°C° 0 mm 4 mps 710 mmHg 84%
    09:00 -3°C° 0 mm 4 mps 710 mmHg 80%
    10:00 -2°C° 0 mm 4 mps 710 mmHg 76%
    11:00 -1°C° 0 mm 5 mps 710 mmHg 73%
    12:00 -1°C° 0 mm 5 mps 709 mmHg 71%
    13:00 0°C° 0 mm 5 mps 709 mmHg 68%
    14:00 0°C° 0.1 mm 4 mps 709 mmHg 71%
    15:00 -1°C° 0.1 mm 4 mps 709 mmHg 74%
    16:00 -1°C° 0.1 mm 4 mps 708 mmHg 77%
    17:00 -1°C° 0.3 mm 4 mps 708 mmHg 80%
    18:00 -1°C° 0.3 mm 3 mps 708 mmHg 82%
    19:00 -1°C° 0.3 mm 3 mps 709 mmHg 85%
    20:00 -1°C° 0.5 mm 3 mps 709 mmHg 86%
    21:00 -1°C° 0.5 mm 3 mps 709 mmHg 88%
    22:00 -1°C° 0.5 mm 3 mps 709 mmHg 89%
    23:00 -1°C° 0.2 mm 2 mps 709 mmHg 90%

    Day after tomorrow, 21 November, Wednesday

    Time Temperature Precipitation Wind Pressure Humidity
    00:00 -1°C° 0.2 mm 2 mps 709 mmHg 91%
    01:00 -1°C° 0.2 mm 2 mps 709 mmHg 91%
    02:00 -1°C° 0 mm 2 mps 709 mmHg 92%
    03:00 -1°C° 0 mm 2 mps 710 mmHg 92%
    04:00 -1°C° 0 mm 2 mps 710 mmHg 92%
    05:00 -1°C° 0 mm 2 mps 710 mmHg 92%
    06:00 -1°C° 0 mm 2 mps 710 mmHg 92%
    07:00 -1°C° 0 mm 2 mps 710 mmHg 92%
    08:00 -1°C° 0 mm 2 mps 711 mmHg 91%
    09:00 0°C° 0 mm 3 mps 711 mmHg 89%
    10:00 0°C° 0 mm 3 mps 711 mmHg 87%
    11:00 0°C° 0 mm 3 mps 711 mmHg 86%
    12:00 +1°C° 0 mm 3 mps 712 mmHg 84%
    13:00 +1°C° 0 mm 3 mps 712 mmHg 83%
    14:00 +1°C° 0 mm 3 mps 712 mmHg 85%
    15:00 0°C° 0 mm 3 mps 712 mmHg 87%
    16:00 -1°C° 0 mm 3 mps 712 mmHg 88%
    17:00 -1°C° 0 mm 3 mps 712 mmHg 88%
    18:00 -1°C° 0 mm 3 mps 713 mmHg 88%
    19:00 -1°C° 0 mm 3 mps 713 mmHg 89%
    20:00 -1°C° 0 mm 3 mps 713 mmHg 89%
    21:00 -2°C° 0 mm 3 mps 713 mmHg 89%
    22:00 -2°C° 0 mm 3 mps 713 mmHg 89%
    23:00 -2°C° 0 mm 3 mps 714 mmHg 89%

    22 November, Thursday

    Time Temperature Precipitation Wind Pressure Humidity
    00:00 -2°C° 0 mm 3 mps 714 mmHg 89%
    01:00 -2°C° 0 mm 2 mps 714 mmHg 89%
    02:00 -2°C° 0 mm 2 mps 714 mmHg 89%
    03:00 -2°C° 0 mm 2 mps 714 mmHg 89%
    04:00 -2°C° 0 mm 2 mps 714 mmHg 90%
    05:00 -3°C° 0 mm 2 mps 714 mmHg 90%
    06:00 -3°C° 0 mm 2 mps 714 mmHg 90%
    07:00 -3°C° 0 mm 2 mps 714 mmHg 90%
    08:00 -2°C° 0 mm 2 mps 715 mmHg 88%
    09:00 -1°C° 0 mm 2 mps 715 mmHg 85%
    10:00 +1°C° 0 mm 2 mps 715 mmHg 82%
    11:00 +1°C° 0 mm 2 mps 715 mmHg 81%
    12:00 +2°C° 0 mm 2 mps 715 mmHg 80%
    13:00 +2°C° 0 mm 2 mps 715 mmHg 79%
    14:00 +3°C° 0 mm 1 mps 716 mmHg 81%
    15:00 +2°C° 0 mm 1 mps 716 mmHg 84%
    16:00 +1°C° 0 mm 1 mps 716 mmHg 87%
    17:00 +1°C° 0 mm 1 mps 716 mmHg 87%
    18:00 0°C° 0 mm 1 mps 716 mmHg 88%
    19:00 0°C° 0 mm 1 mps 716 mmHg 88%
    20:00 0°C° 0 mm 1 mps 716 mmHg 89%
    21:00 0°C° 0 mm 1 mps 717 mmHg 89%
    22:00 0°C° 0 mm 1 mps 717 mmHg 90%
    23:00 0°C° 0 mm 1 mps 717 mmHg 90%

    23 November, Friday

    Time Temperature Precipitation Wind Pressure Humidity
    00:00 0°C° 0 mm 1 mps 717 mmHg 90%
    01:00 0°C° 0 mm 1 mps 717 mmHg 91%
    02:00 0°C° 0 mm 1 mps 717 mmHg 91%
    03:00 0°C° 0 mm 1 mps 718 mmHg 91%
    04:00 0°C° 0 mm 1 mps 718 mmHg 91%
    05:00 0°C° 0 mm 1 mps 718 mmHg 91%
    06:00 0°C° 0 mm 1 mps 718 mmHg 91%
    07:00 0°C° 0 mm 1 mps 718 mmHg 91%
    08:00 +1°C° 0 mm 1 mps 719 mmHg 87%
    09:00 +3°C° 0 mm 1 mps 719 mmHg 84%
    10:00 +4°C° 0 mm 1 mps 719 mmHg 80%
    11:00 +5°C° 0 mm 1 mps 719 mmHg 78%
    12:00 +6°C° 0 mm 1 mps 719 mmHg 76%
    13:00 +6°C° 0 mm 1 mps 719 mmHg 75%
    14:00 +5°C° 0 mm 1 mps 719 mmHg 79%
    15:00 +4°C° 0 mm 1 mps 719 mmHg 84%
    16:00 +3°C° 0 mm 1 mps 719 mmHg 88%
    17:00 +3°C° 0 mm 1 mps 719 mmHg 89%
    18:00 +3°C° 0 mm 1 mps 719 mmHg 90%
    19:00 +2°C° 0 mm 1 mps 719 mmHg 91%
    20:00 +2°C° 0 mm 1 mps 719 mmHg 91%
    21:00 +2°C° 0 mm 1 mps 719 mmHg 92%
    22:00 +2°C° 0 mm 1 mps 719 mmHg 92%
    23:00 +2°C° 0 mm 1 mps 719 mmHg 92%

    24 November, Saturday

    Time Temperature Precipitation Wind Pressure Humidity
    00:00 +2°C° 0 mm 1 mps 718 mmHg 92%
    01:00 +2°C° 0 mm 1 mps 718 mmHg 92%
    02:00 +1°C° 0 mm 2 mps 718 mmHg 92%
    03:00 +1°C° 0 mm 2 mps 718 mmHg 92%
    04:00 +1°C° 0 mm 2 mps 717 mmHg 92%
    05:00 +1°C° 0 mm 2 mps 717 mmHg 92%
    06:00 -1°C° 0 mm 2 mps 717 mmHg 91%
    07:00 -1°C° 0 mm 2 mps 717 mmHg 91%
    08:00 +2°C° 0 mm 2 mps 717 mmHg 87%
    09:00 +3°C° 0 mm 2 mps 717 mmHg 82%
    10:00 +5°C° 0 mm 2 mps 717 mmHg 78%
    11:00 +5°C° 0 mm 2 mps 716 mmHg 76%
    12:00 +6°C° 0 mm 2 mps 716 mmHg 74%
    13:00 +7°C° 0 mm 2 mps 716 mmHg 71%
    14:00 +5°C° 0 mm 2 mps 715 mmHg 76%
    15:00 +4°C° 0 mm 2 mps 715 mmHg 81%
    16:00 +3°C° 0 mm 2 mps 714 mmHg 86%
    17:00 +3°C° 0 mm 2 mps 714 mmHg 87%
    18:00 +2°C° 0 mm 2 mps 714 mmHg 88%
    19:00 +2°C° 0 mm 2 mps 713 mmHg 88%
    20:00 +2°C° 0 mm 2 mps 713 mmHg 87%
    21:00 +2°C° 0 mm 2 mps 713 mmHg 85%
    22:00 +3°C° 0 mm 1 mps 713 mmHg 83%
    23:00 +3°C° 0 mm 1 mps 713 mmHg 82%
    Show more